User: anonymous   Login
Location: Unspecified
(0.0000°N, 0.0000°E)
Time: 01:30:03
(UTC+00:00)
Language:

Ayame - Orbit

View from above orbital plane
View from above orbital plane
View from above satellite
View from above satellite

Ground track
Ground track

The orbit data is extracted from the following two-line orbital elements,

1 11261U 79009A   18265.38589178 -.00000064 +00000-0 +00000-0 0  9998
2 11261 008.7226 096.7310 3678439 180.1340 202.2803 01.68579860128526
Epoch (UTC): 22 September 2018 09:15:41
Eccentricity: 0.3678439
inclination: 8.7226°
perigee height: 12473 km
apogee height: 34413 km
right ascension of ascending node: 96.7310°
argument of perigee: 180.1340°
revolutions per day: 1.68579860
mean anomaly at epoch: 202.2803°
orbit number at epoch: 12852

The dashed part of the orbit path shows where the satellite is in the earth's shadow,  

DLR